WA7RHK-2 Weather Reports


Display with metric or nautical units.
time (UTC)temp
F
wind
direction
speed
MPH
gust
MPH
rain 1hr
in
rain 24hr
in
rain mn
in
humidity
%
barometer
mb
20240621233051 89 105 0.0 6.0 0.00 0.01 0.00 62 1016.0
20240621231649 89 109 0.0 1.0 0.00 0.01 0.00 61 1016.1
20240621230058 90 102 0.0 5.0 0.00 0.01 0.00 61 1016.2
20240621224547 90 94 0.0 3.0 0.00 0.01 0.00 59 1016.2
20240621223045 90 113 3.0 10.0 0.00 0.01 0.00 59 1016.4
20240621221544 90 73 3.0 9.0 0.00 0.01 0.00 57 1016.5
20240621220042 90 101 0.0 3.0 0.00 0.01 0.00 59 1016.7
20240621214540 90 72 0.0 5.0 0.00 0.01 0.00 57 1016.9
20240621213038 90 91 0.0 7.0 0.00 0.01 0.00 58 1017.0
20240621211539 90 105 1.0 7.0 0.00 0.01 0.00 59 1017.2
20240621210036 90 129 0.0 7.0 0.00 0.01 0.00 59 1017.4
20240621204533 89 110 1.0 6.0 0.00 0.01 0.00 60 1017.5
20240621203041 91 138 3.0 8.0 0.00 0.01 0.00 60 1017.6
20240621201530 90 82 0.0 7.0 0.00 0.01 0.00 61 1017.8
20240621200028 90 115 1.0 6.0 0.00 0.01 0.00 59 1017.8
20240621194542 90 82 0.0 9.0 0.00 0.01 0.00 59 1017.9
20240621193024 89 218 0.0 7.0 0.00 0.01 0.00 61 1018.2
20240621191525 90 143 0.0 3.0 0.00 0.01 0.00 60 1018.3
20240621190021 89 104 0.0 4.0 0.00 0.01 0.00 62 1018.5
20240621184520 89 58 0.0 1.0 0.00 0.01 0.00 63 1018.7
20240621183029 90 98 3.0 10.0 0.00 0.01 0.00 62 1018.9
20240621181517 89 134 0.0 5.0 0.00 0.01 0.00 64 1019.0
20240621180022 88 117 3.0 6.0 0.00 0.01 0.00 67 1019.2
20240621174513 87 71 0.0 7.0 0.00 0.01 0.00 68 1019.3
20240621173020 87 77 0.0 5.0 0.00 0.01 0.00 71 1019.4
20240621171513 87 124 3.0 6.0 0.00 0.01 0.00 69 1019.4
20240621170006 85 250 0.0 4.0 0.00 0.01 0.00 74 1019.5
20240621164515 86 97 0.0 1.0 0.00 0.01 0.00 74 1019.7
20240621163012 86 109 0.0 2.0 0.00 0.01 0.00 72 1019.8
20240621161504 85 125 0.0 4.0 0.00 0.01 0.00 77 1020.0
20240621160001 85 107 0.0 1.0 0.00 0.01 0.00 78 1019.9
20240621154601 83 133 0.0 1.0 0.00 0.01 0.00 80 1020.0
20240621153109 83 122 0.0 3.0 0.00 0.01 0.00 79 1020.0
20240621151600 82 95 0.0 1.0 0.00 0.01 0.00 85 1019.9
20240621150054 82 77 0.0 1.0 0.00 0.01 0.00 85 1019.8
20240621144603 82 152 0.0 1.0 0.00 0.01 0.00 85 1019.7
20240621143052 81 94 0.0 0.0 0.00 0.01 0.00 88 1019.7
20240621141547 80 111 0.0 0.0 0.00 0.01 0.00 89 1019.7
20240621140050 80 107 0.0 1.0 0.00 0.01 0.00 89 1019.8
20240621134540 79 115 0.0 1.0 0.00 0.01 0.00 89 1019.6
20240621133039 79 96 0.0 1.0 0.00 0.01 0.00 90 1019.6
20240621131535 77 113 0.0 1.0 0.00 0.01 0.00 92 1019.5
20240621130033 76 87 0.0 1.0 0.00 0.01 0.00 93 1019.5
20240621124531 75 124 0.0 1.0 0.00 0.01 0.00 93 1019.5
20240621123030 75 101 0.0 1.0 0.00 0.01 0.00 94 1019.4
20240621121532 74 69 0.0 1.0 0.00 0.01 0.00 94 1019.2
20240621120028 0 0.0 0.0 0.00 0.01 0.00 1018.9
20240621114521 0 0.0 0.0 0.00 0.01 0.00 1018.8
20240621113018 0 0.0 0.0 0.00 0.01 0.00 1018.9
20240621111511 0 0.0 0.0 0.00 0.01 0.00 1018.8
20240621110018 0 0.0 0.0 0.00 0.01 0.00 1018.8
20240621104505 0 0.0 0.0 0.00 0.01 0.00 1018.8
20240621103141 0 0.0 0.0 0.00 0.01 0.00 1018.8
20240621101615 0 0.0 0.0 0.00 0.01 0.00 1018.6
20240621100051 74 82 0.0 0.0 0.00 0.01 0.00 93 1018.6
20240621094603 74 97 0.0 0.0 0.00 0.01 0.00 93 1018.5
20240621093057 74 98 0.0 0.0 0.00 0.01 0.00 93 1018.4
20240621091549 75 83 0.0 0.0 0.00 0.01 0.00 93 1018.4
20240621090050 75 83 0.0 1.0 0.00 0.01 0.00 93 1018.4
20240621084551 75 103 0.0 0.0 0.00 0.01 0.00 92 1018.4
20240621083056 75 110 0.0 0.0 0.00 0.01 0.00 92 1018.5
20240621081551 75 110 0.0 0.0 0.00 0.01 0.00 92 1018.5
20240621080043 75 110 0.0 0.0 0.00 0.01 0.00 91 1018.5
20240621074543 76 117 0.0 0.0 0.00 0.01 0.00 91 1018.6
20240621073040 76 134 0.0 0.0 0.00 0.01 0.00 90 1018.6
20240621071538 76 105 0.0 0.0 0.00 0.01 0.00 90 1018.7
20240621070046 76 122 0.0 0.0 0.00 0.01 0.00 90 1018.9
20240621064535 76 107 0.0 0.0 0.00 0.01 0.00 90 1018.9
20240621063034 77 107 0.0 0.0 0.00 0.01 0.00 89 1018.9
20240621061538 77 112 0.0 0.0 0.00 0.01 0.00 90 1019.0
20240621060032 77 105 0.0 0.0 0.00 0.01 0.00 90 1019.0
20240621054532 77 122 0.0 0.0 0.00 0.02 0.00 90 1019.1
20240621053031 77 122 0.0 0.0 0.00 0.02 0.00 90 1019.1
20240621051528 77 122 0.0 0.0 0.00 0.02 0.00 89 1019.0
20240621050026 77 122 0.0 0.0 0.00 0.02 0.00 89 1018.9
20240621044525 77 122 0.0 0.0 0.00 0.02 0.02 90 1018.9
20240621043034 77 122 0.0 0.0 0.00 0.02 0.02 90 1018.8
20240621041540 77 122 0.0 0.0 0.00 0.02 0.02 90 1018.8
20240621040033 77 122 0.0 0.0 0.00 0.02 0.02 91 1018.7
20240621034524 77 122 0.0 0.0 0.01 0.08 0.02 91 1018.6
20240621033026 78 122 0.0 0.0 0.01 0.08 0.02 90 1018.4
20240621031522 78 122 0.0 1.0 0.01 0.08 0.02 89 1018.3
20240621030021 79 117 0.0 1.0 0.01 0.08 0.02 87 1018.1
20240621024521 81 89 0.0 4.0 0.00 0.22 0.01 81 1018.1
20240621023024 82 90 0.0 1.0 0.00 0.22 0.01 78 1017.6
20240621021520 82 84 0.0 1.0 0.00 0.22 0.01 78 1017.5
20240621020022 82 110 0.0 3.0 0.00 0.22 0.01 75 1017.4
20240621014522 83 90 0.0 1.0 0.00 0.25 0.01 74 1017.2
20240621013019 84 94 0.0 2.0 0.00 0.25 0.01 72 1017.1
20240621011518 84 172 0.0 2.0 0.00 0.25 0.01 72 1017.0
20240621010017 85 69 0.0 4.0 0.00 0.25 0.01 70 1016.9
20240621004523 86 56 0.0 8.0 0.00 0.27 0.01 69 1016.9
20240621003016 86 113 2.0 5.0 0.00 0.27 0.01 69 1016.9
20240621001516 87 63 0.0 6.0 0.00 0.27 0.01 67 1016.7
20240621000022 87 84 0.0 6.0 0.00 0.27 0.01 65 1016.6
20240620234514 87 59 1.0 7.0 0.00 0.28 0.01 68 1016.5